Weather History for Park Rapids, MN

Change the Weather History Date:

Tuesday, March 26, 2013

  Actual Average Record
Temperature  
Mean Temperature 18 °F -  
Max Temperature 37 °F 42 °F 71 °F (2007)
Min Temperature 0 °F 20 °F -26 °F (1996)
Degree Days  
Heating Degree Days 47    
Moisture  
Dew Point 8 °F    
Average Humidity 71    
Maximum Humidity 87    
Minimum Humidity 36    
Precipitation  
Precipitation 0.00 in - - ()
Sea Level Pressure  
Sea Level Pressure 30.33 in    
Wind  
Wind Speed 4 mph (WNW)    
Max Wind Speed 8 mph    
Max Gust Speed -    
Visibility 10 miles    
Events      
Averages and records for this station are not official NWS values.
T = Trace of Precipitation, MM = Missing Value Source: NWS Daily Summary

Daily Weather History Graph

Daily Weather History Graph

Search for Another Location

Airport:

Trip Planner

Search our weather history database for the weather conditions in past years. The results will help you decide how hot, cold, wet, or windy it might be!

Date:

Astronomy

Mar. 26, 2013 Rise Set
Actual Time 7:10 AM CDT 7:41 PM CDT
Civil Twilight 6:40 AM CDT 8:12 PM CDT
Nautical Twilight 6:04 AM CDT 8:48 PM CDT
Astronomical Twilight 5:26 AM CDT 9:26 PM CDT
Moon 7:20 PM CDT (3/26) 6:28 AM CDT (3/26)
Length of Visible Light 13h 31m
Length of Day
12h 30m
Waxing Gibbous, 99% of the Moon is Illuminated
Mar 26
Waxing Gibbous
Mar 27
Full
Apr 2
Last Quarter
Apr 10
New
Apr 18
First Quarter

Hourly Weather History & Observations

Time (CDT) Temp. Windchill Dew Point Humidity Pressure Visibility Wind Dir Wind Speed Gust Speed Precip Events Conditions
12:53 AM 10.9 °F 1.4 °F 7.0 °F 84% 30.33 in 10.0 mi WNW 5.8 mph - N/A   Clear
1:53 AM 5.0 °F -4.1 °F 1.0 °F 84% 30.33 in 10.0 mi WNW 4.6 mph - N/A   Clear
2:53 AM 6.1 °F -4.3 °F 3.0 °F 87% 30.32 in 10.0 mi WNW 5.8 mph - N/A   Clear
3:53 AM 3.0 °F -6.4 °F -0.9 °F 84% 30.33 in 10.0 mi WNW 4.6 mph - N/A   Clear
4:53 AM 1.9 °F -9.2 °F -2.0 °F 83% 30.33 in 10.0 mi WNW 5.8 mph - N/A   Clear
5:53 AM 1.9 °F -5.6 °F -2.0 °F 83% 30.33 in 10.0 mi WNW 3.5 mph - N/A   Clear
6:53 AM 1.0 °F -6.7 °F -4.0 °F 79% 30.35 in 10.0 mi WNW 3.5 mph - N/A   Clear
7:53 AM -0.9 °F -8.9 °F -5.1 °F 83% 30.36 in 10.0 mi WNW 3.5 mph - N/A   Clear
8:53 AM 3.0 °F -4.4 °F -0.9 °F 84% 30.37 in 10.0 mi WNW 3.5 mph - N/A   Clear
9:53 AM 10.0 °F 1.8 °F 7.0 °F 87% 30.36 in 10.0 mi WSW 4.6 mph - N/A   Clear
10:53 AM 18.0 °F 12.7 °F 12.9 °F 81% 30.36 in 10.0 mi WSW 3.5 mph - N/A   Clear
11:53 AM 24.1 °F - 16.0 °F 71% 30.35 in 10.0 mi Calm Calm - N/A   Clear
12:53 PM 28.0 °F 24.2 °F 18.0 °F 66% 30.34 in 10.0 mi SW 3.5 mph - N/A   Clear
1:53 PM 32.0 °F 28.7 °F 15.1 °F 50% 30.33 in 10.0 mi WSW 3.5 mph - N/A   Clear
2:53 PM 36.0 °F - 10.9 °F 36% 30.32 in 10.0 mi Calm Calm - N/A   Clear
3:53 PM 36.0 °F - 14.0 °F 41% 30.31 in 10.0 mi Calm Calm - N/A   Clear
4:53 PM 35.1 °F 32.2 °F 16.0 °F 46% 30.31 in 10.0 mi West 3.5 mph - N/A   Clear
5:53 PM 35.1 °F - 14.0 °F 42% 30.30 in 10.0 mi Calm Calm - N/A   Clear
6:53 PM 30.9 °F 23.5 °F 19.0 °F 61% 30.31 in 10.0 mi WNW 8.1 mph - N/A   Clear
7:53 PM 26.1 °F 18.4 °F 17.1 °F 69% 30.32 in 10.0 mi WNW 6.9 mph - N/A   Clear
8:53 PM 21.0 °F 16.2 °F 12.9 °F 71% 30.34 in 10.0 mi WNW 3.5 mph - N/A   Clear
9:53 PM 21.0 °F 16.2 °F 12.0 °F 68% 30.34 in 10.0 mi NW 3.5 mph - N/A   Clear
10:53 PM 16.0 °F - 10.0 °F 77% 30.35 in 10.0 mi Calm Calm - N/A   Clear
11:53 PM 15.1 °F - 9.0 °F 77% 30.35 in 10.0 mi Calm Calm - N/A   Clear